SES-22

Last updated on Tue Sep 22 2026 00:03:15 GMT+0000 (Coordinated Universal Time)

1 52933U 22071A 26264.49959354 .00000101 00000+0 00000+0 0 9992 2 52933 0.0293 264.9516 0001096 252.6167 243.6671 1.00271931 8489
UTC large
Height (km)
Speed (km/s)
/
Latitude / Longitude
Inclination (degrees)
Orbital Period (minutes)
Azimuth
Elevation
Range (km)
Doppler Factor

Next 0 passes for location: London (51.5072 / 0.1276)

No passes found over London.
SES-22